Cleveland, OH

3:03 PM EDT on September 28, 2016 (GMT -0400)
Burke Lakefront

Weather History for KBKL - August, 2014

Change the Weather History Date:

Thursday, August 7, 2014

  Actual Average Record
Temperature  
Mean Temperature 68 °F -  
Max Temperature 75 °F 78 °F 93 °F (1996)
Min Temperature 62 °F 65 °F 59 °F (1997)
Cooling Degree Days 4    
Growing Degree Days 18 (Base 50)    
Moisture  
Dew Point 57 °F    
Average Humidity 62    
Maximum Humidity 80    
Minimum Humidity 51    
Precipitation  
Precipitation 0.00 in - - ()
Sea Level Pressure  
Sea Level Pressure 30.08 in    
Wind  
Wind Speed 5 mph (North)    
Max Wind Speed 8 mph    
Max Gust Speed -    
Visibility 10 miles    
Events      
Averages and records for this station are not official NWS values.
T = Trace of Precipitation, MM = Missing Value Source: NWS Daily Summary

Daily Weather History Graph

Daily Weather History Graph

Search for Another Location

Airport or City:

Trip Planner

Search our weather history database for the weather conditions in past years. The results will help you decide how hot, cold, wet, or windy it might be!

Date:

Astronomy

Aug. 07, 2014 Rise Set
Actual Time 6:27 AM EDT 8:36 PM EDT
Civil Twilight 5:56 AM EDT 9:07 PM EDT
Nautical Twilight 5:19 AM EDT 9:44 PM EDT
Astronomical Twilight 4:37 AM EDT 10:25 PM EDT
Moon 5:52 PM EDT (8/7) 2:55 AM EDT (8/7)
Length of Visible Light 15h 10m
Length of Day
14h 09m
Waxing Gibbous, 86% of the Moon is Illuminated
Aug 7
Waxing Gibbous
Aug 10
Full
Aug 17
Last Quarter
Aug 25
New
Sep 2
First Quarter

Hourly Weather History & Observations

Time (EDT) Temp. Dew Point Humidity Pressure Visibility Wind Dir Wind Speed Gust Speed Precip Events Conditions
12:53 AM 70.0 °F 54.0 °F 57% 30.04 in 10.0 mi North 8.1 mph - N/A   Clear
1:53 AM 69.1 °F 54.0 °F 58% 30.05 in 10.0 mi North 8.1 mph - N/A   Clear
2:53 AM 68.0 °F 54.0 °F 61% 30.05 in 10.0 mi North 8.1 mph - N/A   Clear
3:53 AM 68.0 °F 55.0 °F 63% 30.05 in 10.0 mi NNE 5.8 mph - N/A   Clear
4:53 AM 64.0 °F 55.9 °F 75% 30.05 in 10.0 mi SE 3.5 mph - N/A   Clear
5:53 AM 63.0 °F 55.9 °F 78% 30.06 in 10.0 mi SSE 3.5 mph - N/A   Clear
6:53 AM 62.1 °F 55.9 °F 80% 30.07 in 10.0 mi SE 3.5 mph - N/A   Clear
7:53 AM 66.0 °F 57.0 °F 73% 30.07 in 10.0 mi Calm Calm - N/A   Clear
8:53 AM 71.1 °F 55.9 °F 59% 30.09 in 10.0 mi Calm Calm - N/A   Clear
9:53 AM 72.0 °F 57.9 °F 61% 30.10 in 10.0 mi North 8.1 mph - N/A   Clear
10:53 AM 73.0 °F 57.9 °F 59% 30.10 in 10.0 mi NNE 5.8 mph - N/A   Clear
11:53 AM 73.0 °F 57.9 °F 59% 30.12 in 10.0 mi NNW 5.8 mph - N/A   Clear
12:53 PM 73.0 °F 57.0 °F 57% 30.10 in 10.0 mi NNW 6.9 mph - N/A   Clear
1:53 PM 73.9 °F 57.9 °F 57% 30.10 in 10.0 mi NNW 3.5 mph - N/A   Clear
2:53 PM 75.0 °F 55.9 °F 51% 30.09 in 10.0 mi NW 5.8 mph - N/A   Clear
3:53 PM 73.9 °F 57.0 °F 55% 30.09 in 10.0 mi NW 5.8 mph - N/A   Clear
4:53 PM 73.9 °F 57.0 °F 55% 30.08 in 10.0 mi WNW 4.6 mph - N/A   Clear
5:53 PM 73.9 °F 57.9 °F 57% 30.07 in 10.0 mi Calm Calm - N/A   Clear
6:53 PM 73.0 °F 57.9 °F 59% 30.07 in 10.0 mi West 3.5 mph - N/A   Clear
7:53 PM 73.0 °F 57.9 °F 59% 30.07 in 10.0 mi North 3.5 mph - N/A   Clear
8:53 PM 70.0 °F 57.9 °F 65% 30.07 in 10.0 mi NNE 3.5 mph - N/A   Clear
9:53 PM 70.0 °F 57.9 °F 65% 30.08 in 10.0 mi ENE 3.5 mph - N/A   Clear
10:53 PM 70.0 °F 57.9 °F 65% 30.09 in 10.0 mi Calm Calm - N/A   Clear
11:53 PM 69.1 °F 57.9 °F 68% 30.09 in 10.0 mi Calm Calm - N/A   Clear